Location: PSU-Greenbush Astrophysical Observatory
(37.5140°N, 94.9880°W)
Time: 04:41:12
(UTC-06:00)

Explorer 11/Cluster Stage 4 - Visible Passes

Search period start: 25 January 2020 00:00
Search period end: 04 February 2020 00:00
Orbit: 467 x 1259 km, 28.8° (Epoch: 24 January)

Date Brightness Start Highest point End Pass type
(mag) Time Alt. Az. Time Alt. Az. Time Alt. Az.
25 Jan 8.8 18:04:25 10° WSW 18:10:35 29° SSW 18:15:50 10° SE visible
25 Jan 9.3 19:56:55 10° SW 19:58:14 11° SSW 19:59:32 10° SSW visible
26 Jan 9.0 17:53:28 10° WSW 17:59:40 28° SSW 18:05:01 10° SE visible
